• In Uzbekistan
  • List of Countries
  • For 7 days
  • Water Temperature
  • Weather Map
  • Weather Widgets
  • user-avatar
    Login

    Hourly Weather Hrazdan

    Today, 5 June, Friday

    Time Temperature Precipitation Wind Pressure Humidity
    00:00 +12°C° 0 mm 2 mps 613 mmHg 55%
    01:00 +10°C° 0 mm 2 mps 613 mmHg 56%
    02:00 +10°C° 0 mm 2 mps 612 mmHg 58%
    03:00 +9°C° 0 mm 2 mps 612 mmHg 59%
    04:00 +10°C° 0 mm 2 mps 613 mmHg 61%
    05:00 +12°C° 0 mm 2 mps 613 mmHg 64%
    06:00 +13°C° 0 mm 1 mps 614 mmHg 67%
    07:00 +14°C° 0 mm 2 mps 614 mmHg 60%
    08:00 +16°C° 0 mm 2 mps 615 mmHg 54%
    09:00 +18°C° 0 mm 3 mps 615 mmHg 47%
    10:00 +18°C° 0 mm 3 mps 616 mmHg 46%
    11:00 +19°C° 0 mm 4 mps 616 mmHg 45%
    12:00 +19°C° 0 mm 4 mps 616 mmHg 44%
    13:00 +19°C° 0 mm 4 mps 616 mmHg 45%
    14:00 +19°C° 0 mm 4 mps 615 mmHg 46%
    15:00 +18°C° 0 mm 4 mps 615 mmHg 48%
    16:00 +18°C° 0.1 mm 3 mps 615 mmHg 53%
    17:00 +17°C° 0.1 mm 2 mps 615 mmHg 57%
    18:00 +18°C° 0.1 mm 1 mps 615 mmHg 62%
    19:00 +15°C° 0.1 mm 1 mps 615 mmHg 65%
    20:00 +13°C° 0.1 mm 1 mps 615 mmHg 68%
    21:00 +11°C° 0.1 mm 1 mps 614 mmHg 71%
    22:00 +10°C° 0 mm 1 mps 614 mmHg 71%
    23:00 +10°C° 0 mm 1 mps 614 mmHg 70%

    Tomorrow, 6 June, Saturday

    Time Temperature Precipitation Wind Pressure Humidity
    00:00 +10°C° 0 mm 1 mps 615 mmHg 70%
    01:00 +10°C° 0 mm 1 mps 614 mmHg 69%
    02:00 +9°C° 0 mm 1 mps 614 mmHg 69%
    03:00 +9°C° 0 mm 1 mps 614 mmHg 68%
    04:00 +10°C° 0 mm 1 mps 615 mmHg 70%
    05:00 +11°C° 0 mm 1 mps 616 mmHg 71%
    06:00 +12°C° 0 mm 1 mps 616 mmHg 72%
    07:00 +14°C° 0.1 mm 1 mps 617 mmHg 68%
    08:00 +15°C° 0.1 mm 1 mps 617 mmHg 63%
    09:00 +18°C° 0.1 mm 1 mps 618 mmHg 58%
    10:00 +18°C° 0.3 mm 2 mps 618 mmHg 55%
    11:00 +18°C° 0.3 mm 2 mps 618 mmHg 53%
    12:00 +19°C° 0.3 mm 2 mps 618 mmHg 50%
    13:00 +19°C° 0.8 mm 2 mps 617 mmHg 53%
    14:00 +18°C° 0.8 mm 2 mps 617 mmHg 55%
    15:00 +18°C° 0.8 mm 3 mps 617 mmHg 58%
    16:00 +18°C° 0.4 mm 3 mps 616 mmHg 62%
    17:00 +17°C° 0.4 mm 2 mps 616 mmHg 66%
    18:00 +16°C° 0.4 mm 2 mps 616 mmHg 70%
    19:00 +14°C° 0 mm 2 mps 616 mmHg 74%
    20:00 +12°C° 0 mm 2 mps 615 mmHg 77%
    21:00 +9°C° 0 mm 2 mps 615 mmHg 81%
    22:00 +9°C° 0 mm 2 mps 615 mmHg 79%
    23:00 +8°C° 0 mm 2 mps 615 mmHg 78%

    Day after tomorrow, 7 June, Sunday

    Time Temperature Precipitation Wind Pressure Humidity
    00:00 +8°C° 0 mm 2 mps 615 mmHg 76%
    01:00 +8°C° 0 mm 2 mps 615 mmHg 75%
    02:00 +8°C° 0 mm 2 mps 614 mmHg 74%
    03:00 +8°C° 0 mm 2 mps 614 mmHg 74%
    04:00 +8°C° 0 mm 2 mps 615 mmHg 73%
    05:00 +9°C° 0 mm 2 mps 615 mmHg 73%
    06:00 +10°C° 0 mm 2 mps 615 mmHg 72%
    07:00 +13°C° 0 mm 2 mps 616 mmHg 67%
    08:00 +15°C° 0 mm 2 mps 617 mmHg 61%
    09:00 +17°C° 0 mm 2 mps 617 mmHg 55%
    10:00 +18°C° 0 mm 2 mps 617 mmHg 53%
    11:00 +19°C° 0 mm 2 mps 617 mmHg 50%
    12:00 +20°C° 0 mm 2 mps 617 mmHg 48%
    13:00 +20°C° 0 mm 2 mps 617 mmHg 48%
    14:00 +20°C° 0 mm 2 mps 617 mmHg 49%
    15:00 +21°C° 0 mm 2 mps 617 mmHg 49%
    16:00 +20°C° 0 mm 2 mps 616 mmHg 56%
    17:00 +19°C° 0 mm 2 mps 616 mmHg 64%
    18:00 +19°C° 0 mm 2 mps 616 mmHg 72%
    19:00 +17°C° 0 mm 2 mps 615 mmHg 77%
    20:00 +15°C° 0 mm 2 mps 615 mmHg 82%
    21:00 +13°C° 0 mm 1 mps 614 mmHg 87%
    22:00 +12°C° 0 mm 1 mps 614 mmHg 87%
    23:00 +12°C° 0 mm 1 mps 614 mmHg 86%

    8 June, Monday

    Time Temperature Precipitation Wind Pressure Humidity
    00:00 +12°C° 0 mm 2 mps 614 mmHg 85%
    01:00 +11°C° 0 mm 1 mps 614 mmHg 85%
    02:00 +11°C° 0 mm 1 mps 613 mmHg 85%
    03:00 +11°C° 0 mm 1 mps 613 mmHg 85%
    04:00 +12°C° 0 mm 1 mps 614 mmHg 84%
    05:00 +13°C° 0 mm 1 mps 614 mmHg 83%
    06:00 +14°C° 0 mm 1 mps 614 mmHg 82%
    07:00 +15°C° 0 mm 1 mps 615 mmHg 76%
    08:00 +18°C° 0 mm 1 mps 615 mmHg 70%
    09:00 +19°C° 0 mm 2 mps 616 mmHg 63%
    10:00 +20°C° 0 mm 2 mps 616 mmHg 60%
    11:00 +21°C° 0 mm 2 mps 616 mmHg 56%
    12:00 +23°C° 0 mm 2 mps 616 mmHg 53%
    13:00 +23°C° 0.2 mm 2 mps 615 mmHg 54%
    14:00 +23°C° 0.2 mm 2 mps 615 mmHg 54%
    15:00 +23°C° 0.2 mm 2 mps 615 mmHg 55%
    16:00 +21°C° 0.1 mm 2 mps 615 mmHg 62%
    17:00 +20°C° 0.1 mm 2 mps 614 mmHg 68%
    18:00 +20°C° 0.1 mm 2 mps 614 mmHg 75%
    19:00 +18°C° 0.1 mm 2 mps 614 mmHg 79%
    20:00 +16°C° 0.1 mm 2 mps 613 mmHg 83%
    21:00 +14°C° 0.1 mm 2 mps 613 mmHg 87%
    22:00 +14°C° 0 mm 2 mps 613 mmHg 87%
    23:00 +13°C° 0 mm 2 mps 613 mmHg 86%

    9 June, Tuesday

    Time Temperature Precipitation Wind Pressure Humidity
    00:00 +13°C° 0 mm 2 mps 613 mmHg 85%
    01:00 +13°C° 0 mm 2 mps 612 mmHg 85%
    02:00 +12°C° 0 mm 2 mps 612 mmHg 84%
    03:00 +12°C° 0 mm 2 mps 612 mmHg 84%
    04:00 +13°C° 0 mm 2 mps 613 mmHg 82%
    05:00 +13°C° 0 mm 2 mps 613 mmHg 80%
    06:00 +14°C° 0 mm 1 mps 614 mmHg 78%
    07:00 +16°C° 0 mm 2 mps 614 mmHg 73%
    08:00 +17°C° 0 mm 2 mps 615 mmHg 68%
    09:00 +19°C° 0 mm 2 mps 615 mmHg 62%
    10:00 +20°C° 0.1 mm 2 mps 616 mmHg 60%
    11:00 +21°C° 0.1 mm 2 mps 616 mmHg 57%
    12:00 +22°C° 0.1 mm 3 mps 616 mmHg 54%
    13:00 +22°C° 0.6 mm 3 mps 616 mmHg 58%
    14:00 +22°C° 0.6 mm 3 mps 615 mmHg 61%
    15:00 +21°C° 0.6 mm 3 mps 615 mmHg 64%
    16:00 +21°C° 0.6 mm 3 mps 615 mmHg 69%
    17:00 +20°C° 0.6 mm 3 mps 615 mmHg 73%
    18:00 +19°C° 0.6 mm 2 mps 614 mmHg 78%
    19:00 +17°C° 0.4 mm 2 mps 614 mmHg 81%
    20:00 +15°C° 0.4 mm 2 mps 614 mmHg 84%
    21:00 +13°C° 0.4 mm 2 mps 614 mmHg 87%
    22:00 +13°C° 0.9 mm 2 mps 614 mmHg 87%
    23:00 +13°C° 0.9 mm 2 mps 614 mmHg 87%

    10 June, Wednesday

    Time Temperature Precipitation Wind Pressure Humidity
    00:00 +13°C° 0.9 mm 2 mps 614 mmHg 86%
    01:00 +13°C° 0.1 mm 1 mps 614 mmHg 85%
    02:00 +12°C° 0.1 mm 1 mps 613 mmHg 84%
    03:00 +12°C° 0.1 mm 1 mps 613 mmHg 83%
    04:00 +12°C° 0 mm 1 mps 614 mmHg 83%
    05:00 +13°C° 0 mm 1 mps 614 mmHg 82%
    06:00 +14°C° 0 mm 1 mps 614 mmHg 81%
    07:00 +15°C° 0.2 mm 1 mps 615 mmHg 76%
    08:00 +17°C° 0.2 mm 2 mps 615 mmHg 72%
    09:00 +18°C° 0.2 mm 2 mps 616 mmHg 67%
    10:00 +19°C° 1 mm 2 mps 616 mmHg 66%
    11:00 +20°C° 1 mm 2 mps 616 mmHg 64%
    12:00 +20°C° 1 mm 2 mps 616 mmHg 62%
    13:00 +20°C° 1 mm 2 mps 616 mmHg 63%
    14:00 +20°C° 1 mm 2 mps 616 mmHg 63%
    15:00 +21°C° 1 mm 2 mps 615 mmHg 63%
    16:00 +20°C° 0.5 mm 2 mps 615 mmHg 67%
    17:00 +19°C° 0.5 mm 2 mps 615 mmHg 71%
    18:00 +19°C° 0.5 mm 2 mps 615 mmHg 75%
    19:00 +17°C° 0.2 mm 2 mps 614 mmHg 77%
    20:00 +15°C° 0.2 mm 2 mps 614 mmHg 79%
    21:00 +13°C° 0.2 mm 2 mps 614 mmHg 81%
    22:00 +13°C° 0.1 mm 2 mps 614 mmHg 80%
    23:00 +13°C° 0.1 mm 2 mps 614 mmHg 80%
    Show more